Location: Newark
(12.4436°N, 0.6167°W)
Time: 00:03:11
(UTC+00:00)

Vanguard 2 - Pass Details

Date: 09 December 2019
Orbit: 553 x 2938 km, 32.9° (Epoch: 22 January)

Event Time Altitude Azimuth Distance (km) Brightness Sun altitude
Rises 07:48:39 0° 304° (NW) 6,622 11.7 20.3°
Reaches altitude 10° 07:53:31 10° 307° (NW) 5,403 11.3 21.3°
Maximum altitude 08:08:34 63° 26° (NNE) 2,109 10.1 24.4°
Drops below altitude 10° 08:17:42 10° 106° (ESE) 3,436 12.4 26.3°
Sets 08:20:07 0° 110° (ESE) 4,150 12.5 26.8°
